Weather History for Riverside March, CA

Change the Weather History Date:

Sunday, April 28, 2013

  Actual Average Record
Temperature  
Mean Temperature 68 °F -  
Max Temperature 88 °F 74 °F 95 °F (2008)
Min Temperature 48 °F 47 °F 42 °F (1999)
Cooling Degree Days 2    
Growing Degree Days 18 (Base 50)    
Moisture  
Dew Point 50 °F    
Average Humidity 59    
Maximum Humidity 88    
Minimum Humidity 23    
Precipitation  
Precipitation 0.00 in - - ()
Sea Level Pressure  
Sea Level Pressure 29.92 in    
Wind  
Wind Speed 5 mph (NW)    
Max Wind Speed 17 mph    
Max Gust Speed -    
Visibility 10 miles    
Events      
Averages and records for this station are not official NWS values.
T = Trace of Precipitation, MM = Missing Value Source: NWS Daily Summary

Daily Weather History Graph

Daily Weather History Graph

Search for Another Location

Airport:

Trip Planner

Search our weather history database for the weather conditions in past years. The results will help you decide how hot, cold, wet, or windy it might be!

Date:

Astronomy

Apr. 28, 2013 Rise Set
Actual Time 6:02 AM PDT 7:30 PM PDT
Civil Twilight 5:36 AM PDT 7:57 PM PDT
Nautical Twilight 5:04 AM PDT 8:28 PM PDT
Astronomical Twilight 4:31 AM PDT 9:02 PM PDT
Moon 11:00 PM PDT (4/28) 8:29 AM PDT (4/28)
Length of Visible Light 14h 20m
Length of Day
13h 27m
Waning Gibbous, 88% of the Moon is Illuminated
Apr 28
Waning Gibbous
May 2
Last Quarter
May 9
New
May 17
First Quarter
May 24
Full

Hourly Weather History & Observations

Time (PDT) Temp. Heat Index Dew Point Humidity Pressure Visibility Wind Dir Wind Speed Gust Speed Precip Events Conditions
12:58 AM 54.1 °F - 47.5 °F 78% 30.00 in 10.0 mi West 3.5 mph - N/A   Clear
1:58 AM 53.1 °F - 46.4 °F 78% 29.99 in 10.0 mi NW 3.5 mph - N/A   Clear
2:58 AM 51.8 °F - 46.2 °F 81% 29.97 in 10.0 mi West 2.3 mph - N/A   Clear
3:58 AM 50.9 °F - 46.6 °F 85% 29.97 in 10.0 mi NW 3.5 mph - N/A   Clear
4:58 AM 49.5 °F - 45.5 °F 86% 29.97 in 10.0 mi WNW 2.3 mph - N/A   Clear
5:58 AM 48.7 °F - 45.3 °F 88% 29.97 in 10.0 mi WNW 1.2 mph - N/A   Clear
6:58 AM 52.3 °F - 47.7 °F 84% 29.98 in 10.0 mi NNW 1.2 mph - N/A   Clear
7:58 AM 61.3 °F - 52.9 °F 74% 29.98 in 10.0 mi NE 1.2 mph - N/A   Clear
8:58 AM 66.4 °F - 53.4 °F 63% 29.97 in 10.0 mi Variable 2.3 mph - N/A   Clear
9:58 AM 72.0 °F - 53.6 °F 52% 29.96 in 10.0 mi NNE 1.2 mph - N/A   Clear
10:58 AM 78.8 °F - 52.2 °F 39% 29.94 in 10.0 mi Variable 2.3 mph - N/A   Clear
11:58 AM 82.9 °F 82.0 °F 55.0 °F 38% 29.93 in 10.0 mi WNW 8.1 mph - N/A   Clear
12:58 PM 84.4 °F - 52.7 °F 33% 29.91 in 10.0 mi NW 11.5 mph - N/A   Clear
1:58 PM 86.4 °F - 50.5 °F 29% 29.89 in 10.0 mi WNW 12.7 mph - N/A   Clear
2:58 PM 87.8 °F 85.9 °F 54.1 °F 32% 29.86 in 10.0 mi NW 15.0 mph - N/A   Clear
3:58 PM 87.6 °F - 45.7 °F 23% 29.84 in 10.0 mi NW 17.3 mph - N/A   Clear
4:58 PM 85.8 °F - 47.5 °F 26% 29.84 in 10.0 mi WNW 13.8 mph - N/A   Clear
5:58 PM 82.6 °F - 49.5 °F 31% 29.85 in 10.0 mi WNW 15.0 mph - N/A   Clear
6:58 PM 77.7 °F - 52.9 °F 42% 29.85 in 10.0 mi NW 9.2 mph - N/A   Clear
7:58 PM 70.5 °F - 53.8 °F 55% 29.86 in 10.0 mi WNW 10.4 mph - N/A   Clear
8:58 PM 65.7 °F - 54.5 °F 67% 29.88 in 10.0 mi West 6.9 mph - N/A   Clear
9:58 PM 65.1 °F - 54.1 °F 68% 29.88 in 10.0 mi NW 2.3 mph - N/A   Clear
10:58 PM 60.4 °F - 52.3 °F 75% 29.87 in 10.0 mi WNW 3.5 mph - N/A   Clear
11:58 PM 56.5 °F - 50.9 °F 82% 29.88 in 10.0 mi West 2.3 mph - N/A   Clear